DO5RS-5 Weather Reports


time (UTC)temp
C
wind
direction
speed
KPH
gust
KPH
rain 1hr
cm
rain 24hr
cm
rain mn
cm
humidity
%
barometer
mb
20260503235904 16 0.0 0.0 0.00 0.00 0.00 62 1016.5
20260503234904 16 0.0 0.0 0.00 0.00 0.00 62 1016.5
20260503233905 16 0.0 0.0 0.00 0.00 0.00 61 1016.6
20260503232908 16 0.0 0.0 0.00 0.00 0.00 60 1016.6
20260503230905 16 0.0 0.0 0.00 0.00 0.00 60 1016.7
20260503225905 16 0.0 0.0 0.00 0.00 0.00 60 1016.4
20260503224905 17 0.0 0.0 0.00 0.00 0.00 58 1016.4
20260503223904 17 0.0 0.0 0.00 0.00 0.00 59 1016.3
20260503222905 17 0.0 0.0 0.00 0.00 0.00 58 1016.1
20260503221905 17 0.0 0.0 0.00 0.00 0.00 57 1016.2
20260503220904 17 0.0 0.0 0.00 0.00 0.00 56 1016.1
20260503215906 17 0.0 0.0 0.00 0.00 0.00 56 1016.1
20260503214905 17 0.0 0.0 0.00 0.00 0.00 55 1015.9
20260503213904 17 0.0 0.0 0.00 0.00 0.00 54 1016.1
20260503212905 18 0.0 0.0 0.00 0.00 0.00 54 1016.1
20260503211905 18 0.0 0.0 0.00 0.00 0.00 54 1016.2
20260503210909 18 0.0 0.0 0.00 0.00 0.00 54 1016.2
20260503203906 18 0.0 0.0 0.00 0.00 0.00 51 1016.2
20260503202909 18 0.0 0.0 0.00 0.00 0.00 51 1016.1
20260503200909 18 0.0 0.0 0.00 0.00 0.00 50 1016.1
20260503194905 18 0.0 0.0 0.00 0.00 0.00 49 1016.2
20260503193905 18 0.0 0.0 0.00 0.00 0.00 49 1015.9
20260503192905 19 0.0 0.0 0.00 0.00 0.00 48 1015.9
20260503191909 19 0.0 0.0 0.00 0.00 0.00 49 1015.8
20260503185905 19 0.0 0.0 0.00 0.00 0.00 48 1015.4
20260503184905 19 0.0 0.0 0.00 0.00 0.00 47 1015.1
20260503183909 20 0.0 0.0 0.00 0.00 0.00 47 1015.1
20260503181904 20 0.0 0.0 0.00 0.00 0.00 45 1014.7
20260503180904 20 0.0 0.0 0.00 0.00 0.00 44 1014.7
20260503175907 20 0.0 0.0 0.00 0.00 0.00 43 1014.5
20260503174907 20 0.0 0.0 0.00 0.00 0.00 41 1014.5
20260503173905 20 0.0 0.0 0.00 0.00 0.00 40 1014.4
20260503172909 21 0.0 0.0 0.00 0.00 0.00 39 1014.5
20260503171905 21 0.0 0.0 0.00 0.00 0.00 38 1014.5
20260503170904 21 0.0 0.0 0.00 0.00 0.00 37 1014.5
20260503150911 23 0.0 0.0 0.00 0.00 0.00 33 1014.3
20260503130904 21 0.0 0.0 0.00 0.00 0.00 33 1015.6
20260503080908 17 0.0 0.0 0.00 0.00 0.00 60 1017.8
20260503072906 15 0.0 0.0 0.00 0.00 0.00 65 1018.2
20260503071910 15 0.0 0.0 0.00 0.00 0.00 64 1018.2
20260503054905 15 0.0 0.0 0.00 0.00 0.00 64 1017.6
20260503053905 14 0.0 0.0 0.00 0.00 0.00 65 1017.5
20260503052905 14 0.0 0.0 0.00 0.00 0.00 65 1017.4
20260503051905 14 0.0 0.0 0.00 0.00 0.00 65 1017.3
20260503050905 13 0.0 0.0 0.00 0.00 0.00 64 1017.0
20260503045904 13 0.0 0.0 0.00 0.00 0.00 64 1017.4
20260503044905 13 0.0 0.0 0.00 0.00 0.00 63 1017.6
20260503043904 13 0.0 0.0 0.00 0.00 0.00 63 1017.5
20260503042905 13 0.0 0.0 0.00 0.00 0.00 63 1017.5
20260503041904 13 0.0 0.0 0.00 0.00 0.00 63 1017.6
20260503040905 13 0.0 0.0 0.00 0.00 0.00 63 1017.3
20260503035904 14 0.0 0.0 0.00 0.00 0.00 62 1017.3
20260503034904 14 0.0 0.0 0.00 0.00 0.00 62 1017.5
20260503033904 14 0.0 0.0 0.00 0.00 0.00 62 1017.2
20260503032909 14 0.0 0.0 0.00 0.00 0.00 62 1017.5
20260503025909 15 0.0 0.0 0.00 0.00 0.00 62 1017.4
20260503023904 15 0.0 0.0 0.00 0.00 0.00 62 1017.4
20260503022904 15 0.0 0.0 0.00 0.00 0.00 62 1017.4
20260503021904 15 0.0 0.0 0.00 0.00 0.00 62 1017.5
20260503020904 15 0.0 0.0 0.00 0.00 0.00 62 1017.5
20260503015905 15 0.0 0.0 0.00 0.00 0.00 61 1017.5
20260503014905 15 0.0 0.0 0.00 0.00 0.00 61 1017.7
20260503013904 15 0.0 0.0 0.00 0.00 0.00 61 1017.6
20260503012904 15 0.0 0.0 0.00 0.00 0.00 61 1017.7
20260503011904 15 0.0 0.0 0.00 0.00 0.00 60 1017.6
20260503010912 15 0.0 0.0 0.00 0.00 0.00 61 1017.6
20260503004903 16 0.0 0.0 0.00 0.00 0.00 60 1017.7
20260503003904 16 0.0 0.0 0.00 0.00 0.00 60 1017.8
20260503002905 16 0.0 0.0 0.00 0.00 0.00 59 1017.8
20260503001909 16 0.0 0.0 0.00 0.00 0.00 59 1017.9